Regional Weather Roundup
Issued by NWS Albany, NY

Home | Current Version | Previous Version | Graphics & Text | Print | Product List | Glossary Off
Versions: 1 2 3 4 5 6 7 8 9 10 11 12 13 14 15 16 17 18 19 20 21 22 23 24 25 26 27

000
ASUS41 KALY 192010
RWRALY

NEW YORK STATE HOURLY WEATHER ROUNDUP
NATIONAL WEATHER SERVICE ALBANY NY
400 PM EDT SAT APR 19 2014

NOTE: "FAIR" INDICATES FEW OR NO CLOUDS BELOW 12,000 FEET WITH NO
SIGNIFICANT WEATHER AND/OR NO OBSTRUCTIONS TO VISIBILITY.

NYZ032-033-038>043-046>054-057>066-NYZ062>081-192100-
EAST


CITY           SKY/WX    TMP DP  RH WIND       PRES   REMARKS
ALBANY         MOSUNNY   60  25  26 NW18G26   30.29R
GLENS FALLS    SUNNY     57  28  33 N15G30    30.32R
POUGHKEEPSIE   MOSUNNY   63  23  21 N13       30.24S
NEWBURGH       MOSUNNY   64  25  22 NE16G23   30.25R
MONTGOMERY     MOSUNNY   65  21  18 NW14      30.23R
WHITE PLAINS   SUNNY     64  25  22 N10G21    30.22R
ISLIP          PTSUNNY   64  25  22 N15G23    30.21F
NEW YORK CITY  PTSUNNY   64  24  21 N6        30.22F
CENTRAL PARK   MOSUNNY   67  22  18 NE9       30.25S
$$

NYZ005>009-017-018-044>046-055-056-192100-
CENTRAL


CITY           SKY/WX    TMP DP  RH WIND       PRES   REMARKS
FULTON         SUNNY     49  27  42 N14G21    30.41F
SYRACUSE       MOSUNNY   52  27  38 N14G20    30.39F
ROME           SUNNY     53  26  35 N13       30.37F
ELMIRA         SUNNY     52  31  44 NE14      30.37F
BINGHAMTON     SUNNY     52  28  39 N17       30.32F
MONTICELLO     SUNNY     55  21  26 N17G26    30.29R
$$

NYZ026>034-041>043-192100-
NORTH


CITY           SKY/WX    TMP DP  RH WIND       PRES   REMARKS
WATERTOWN      SUNNY     52  28  39 W8        30.40F
FORT DRUM      NOT AVBL
MASSENA        SUNNY     50  24  36 NW9       30.40F
SARANAC LAKE   PTSUNNY   44  25  47 VRB6      30.32S
PLATTSBURGH    MOSUNNY   50  24  36 NW12G18   30.34S
$$

NYZ001>004-010>016-019>021-192100-
WEST


CITY           SKY/WX    TMP DP  RH WIND       PRES   REMARKS
NIAGARA FALLS  MOSUNNY   50  28  42 N13       30.40F
BUFFALO        MOSUNNY   52  28  39 N13G20    30.40F
DUNKIRK        SUNNY     50  32  50 N10       30.40F
JAMESTOWN      SUNNY     52  30  43 NE9G17    30.34S
WELLSVILLE     SUNNY     52  25  35 N10G16    30.34S
ROCHESTER      MOSUNNY   49  28  44 NE9G18    30.42F
PENN YAN       SUNNY     51  28  41 NE9G17    30.39S
$$

             KEY
       WCI = WIND CHILL INDEX
       VSB = VISIBILITY
       HX  = HEAT INDEX
$$



USA.gov is the U.S. government's official web portal to all federal, state and local government web resources and services.